リニア彗星

217P/LINEAR (2001)

English version
Home page
Updated on March 22, 2009

---------------------------------------------------------------------

・ プロフィール

符号 217P/2001 MD7
発見日 2001年6月21日
発見光度 17.6等
発見者 Lincoln Laboratory Near-Earth Asteroid Research project

・ 軌道要素

Epoch 2001 Nov. 27.0 TT = JDT 2452240.5
T 2001 Nov. 30.13265 TT                                 MPC
q   1.2542812            (2000.0)            P               Q
n   0.12457730     Peri.  244.84771     +0.95077043     -0.25132660
a   3.9704839      Node   129.16811     +0.29186094     +0.92287437
e   0.6840987      Incl.   13.52379     -0.10417669     +0.29178388
P   7.91

・ 星図

・ 光度変化

        m1 = 10.5 + 5 logΔ + 14.0 log r(t - 30)

---------------------------------------------------------------------

軌道要素はM.P.E.C. 2009-F51に掲載されたものです。
星図は StellaNavigator Ver.2.0 for Windows (アストロアーツ編著 / アスキー出版局刊) で作成したものです。
光度グラフはComet for Windowsで作成したものです。

---------------------------------------------------------------------

Copyright(C) Seiichi Yoshida (comet@aerith.net). All rights reserved.